Location: Baix
(44.7118°N, 4.7648°E)
Time: 00:59:00
(UTC+00:00)

Vanguard 3 - Pass Details

Date: 05 December 2020
Orbit: 508 x 3262 km, 33.3° (Epoch: 19 January)

Event Time Altitude Azimuth Distance (km) Brightness Sun altitude
Rises 20:11:45 0° 245° (WSW) 2,861 10.5 -43.7°
Enters shadow 20:11:56 - 244° (WSW) 2,789 10.4 -43.7°
Reaches altitude 10° 20:14:52 10° 222° (SW) 1,780 - -44.2°
Maximum altitude 20:17:14 16° 183° (S) 1,393 - -44.7°
Drops below altitude 10° 20:19:33 10° 143° (SE) 1,721 - -45.1°
Sets 20:22:29 0° 120° (ESE) 2,711 - -45.6°
